Location: Syracuse
(43.0480°N, 76.1480°W)
Time: 12:27:02
(UTC-04:00)

Daily predictions for brighter satellites

Satellite Brightness Start Highest point End
(mag) Time Altitude Azimuth Time Altitude Azimuth Time Altitude Azimuth
Meteor 2-16 Rocket 4.5 19:37:45 10° S 19:43:52 77° E 19:50:02 10° N
Cosmos 1437 Rocket 3.3 19:42:28 10° SSE 19:46:12 40° E 19:50:02 10° NNE
SJ-6B 2.6 19:43:27 10° SSE 19:47:10 71° ENE 19:50:54 10° N
H-2A R/B 4.5 19:43:04 10° SSW 19:47:29 23° SE 20:02:07 10° E
Cosmos 2098 4.3 19:45:34 10° S 19:48:56 59° E 19:51:53 10° NNE
Lacrosse 4 Rocket 1.5 19:45:16 10° S 19:49:12 50° ESE 19:53:08 10° NE
Resurs 1-3 4.2 19:48:55 10° SE 19:52:55 36° ENE 19:56:56 10° N
Cosmos 2058 Rocket 4.1 19:52:37 10° SSW 19:57:00 53° W 20:01:26 10° N
Cosmos 192 4.5 19:53:20 10° NNW 19:58:18 81° WSW 20:03:12 10° SSE
USA 215 4.1 19:53:09 10° ENE 19:58:42 29° SE 20:04:12 10° S
Cosmos 1844 Rocket 2.7 19:53:18 10° SSW 19:58:56 75° ESE 20:04:35 10° NNE
Spot 2 Rocket 3.7 19:55:16 10° SE 20:00:11 51° ENE 20:05:09 10° N
Cosmos 2150 Rocket 4.0 19:56:25 10° S 20:01:28 61° ESE 20:06:33 10° NNE
Cosmos 1833 Rocket 4.2 20:03:25 10° N 20:07:29 20° NE 20:10:56 12° E
FengYun 1-2 T 4.2 20:02:18 10° SSE 20:07:51 81° ENE 20:13:29 10° NNW
Cosmos 2278 Rocket 2.7 20:03:05 10° S 20:08:14 38° ESE 20:13:25 10° NE
Cosmos 1934 Rocket 3.9 20:06:20 10° S 20:12:24 63° E 20:18:24 10° NNE
Cosmos 1378 3.1 20:08:44 10° N 20:12:32 84° E 20:16:17 10° S
SAR-Lupe-4 4.3 20:11:06 10° SE 20:14:19 32° ENE 20:17:34 10° N
Cosmos 1898 Rocket 3.7 20:09:13 10° SSW 20:14:31 81° WNW 20:19:51 10° NNE
Cosmos 1939 Rocket 4.5 20:13:32 14° E 20:15:22 19° ENE 20:18:16 10° NNE
Tiangong 1 1.1 20:12:32 10° W 20:15:27 60° SSW 20:17:22 19° ESE
Cosmos 990 Rocket 4.0 20:10:27 10° S 20:15:37 62° ESE 20:20:48 10° NNE
Cosmos 1953 3.5 20:14:03 10° SE 20:17:13 22° E 20:20:23 10° NE
Okean 3 Rocket 4.1 20:13:17 10° N 20:17:24 38° ENE 20:21:31 10° SE
Envisat 3.9 20:14:18 12° ESE 20:18:12 29° ENE 20:22:31 10° N
FENGYUN 3A 3.9 20:13:31 10° S 20:18:55 76° WSW 20:24:20 10° NNW
Meteor 1-24 Rocket 3.6 20:16:32 10° N 20:22:01 84° E 20:27:39 10° S
H-2A R/B 2.7 20:18:56 10° SSE 20:22:49 89° ENE 20:26:46 10° NNW
Cosmos 1125 Rocket 4.4 20:19:07 10° SSE 20:23:16 25° E 20:27:25 10° NE
USA 186 1.6 20:24:57 30° ESE 20:25:24 34° ENE 20:27:29 10° N
Abrixas 3.4 20:22:50 10° NW 20:25:29 34° NNE 20:26:54 21° ENE
Cosmos 1707 4.3 20:23:33 10° NNW 20:27:12 38° W 20:30:48 10° SSW
Geosat 3.9 20:26:56 10° NNE 20:31:58 70° ESE 20:36:58 10° SSW
Cosmos 1821 Rocket 4.3 20:25:52 10° SSW 20:32:14 74° W 20:38:37 10° N
USA 267 4.3 20:27:21 12° ENE 20:32:30 33° NNE 20:38:12 10° NW
SAR-Lupe-1 4.3 20:31:15 18° SE 20:33:42 48° ENE 20:37:11 10° N
Cosmos 2082 Rocket 3.0 20:31:51 10° N 20:37:02 34° NE 20:39:45 22° ESE
Lacrosse 5 rocket 3.3 20:35:04 10° NNW 20:37:40 16° NNE 20:39:27 13° NE
ALOS 3.5 20:33:20 10° S 20:37:48 44° W 20:42:16 10° NNW
GP-B 3.5 20:37:26 17° SE 20:40:24 39° E 20:44:33 10° NNE
Resurs 01 Rocket 2.2 20:36:59 10° S 20:41:20 59° WSW 20:45:43 10° NNW
CZ-3B DEB 2.8 20:29:53 10° SW 20:41:20 86° NW 20:46:21 10° NE
Cosmos 1812 Rocket 4.2 20:37:02 10° SSW 20:41:24 58° W 20:45:45 10° N
Meteor 1-4 Rocket 3.0 20:40:40 30° SE 20:41:33 35° E 20:44:45 10° NNE
CZ-4B DEB 3.0 20:41:48 38° ESE 20:42:23 43° ENE 20:45:22 10° N
Cosmos 1766 3.5 20:38:37 10° SSW 20:42:28 71° W 20:46:22 10° N
Cosmos 1818 3.9 20:37:16 10° NNW 20:42:34 48° NE 20:45:20 26° ESE
RESURS DK-1 2.4 20:38:46 10° NNW 20:42:55 79° WSW 20:46:08 16° SSE
Cosmos 1544 3.1 20:39:44 10° S 20:43:18 54° E 20:46:53 10° NNE
ERS-1 Rocket 3.9 20:43:31 24° E 20:44:57 28° ENE 20:49:13 10° N
SL-27 R/B 3.0 20:43:45 10° NNW 20:47:16 58° WSW 20:50:29 12° S
Cosmos 1937 Rocket 4.2 20:42:24 10° SW 20:47:32 58° WNW 20:52:47 10° NNE
BREEZE-M DEB (TANK) 3.9 20:45:15 10° SSW 20:48:34 33° SE 20:57:32 10° ENE
Cosmos 1605 Rocket 4.0 20:43:51 10° S 20:50:06 85° E 20:56:29 10° N
Meteor 1-29 3.0 20:47:07 10° NNE 20:50:30 52° E 20:52:31 22° S
COSMOS 2487 3.6 20:47:54 10° N 20:50:47 27° ENE 20:50:47 27° ENE
Lacrosse 5 1.7 20:48:09 10° SW 20:53:13 79° SE 20:58:10 11° NE
Cosmos 1766 Rocket 3.8 20:52:24 10° N 20:56:45 47° ENE 20:57:56 37° ESE
Cosmos 1076 Rocket 3.4 20:53:39 10° N 20:57:54 67° E 20:59:48 31° SSE
Cosmos 1269 Rocket 4.2 20:52:59 10° N 20:58:09 51° ENE 21:00:06 34° ESE
SPOT 5 4.4 20:58:37 22° ENE 20:58:56 23° ENE 21:03:01 10° NNE
Cosmos 2098 Rocket 4.3 20:54:23 10° S 21:01:22 73° E 21:08:59 10° NNE
Meteor 1-21 Rocket 4.2 20:56:02 10° N 21:01:51 70° ENE 21:05:51 21° SSE
OE (NEXTSAT) 4.4 20:58:53 10° SW 21:02:24 57° SSE 21:02:26 57° SSE
Cosmos 1802 Rocket 4.4 21:05:08 33° ESE 21:06:43 39° E 21:12:21 10° NNE
ARGOS 4.4 21:06:43 23° ENE 21:06:44 23° ENE 21:10:53 10° NNE
Cosmos 468 4.4 21:02:22 10° NNW 21:07:38 88° ENE 21:10:22 29° SSE
Cosmos 2344 4.0 21:06:07 10° SW 21:13:45 68° NW 21:22:35 10° NE
Cosmos 2061 Rocket 4.2 21:11:25 28° SSE 21:14:36 50° E 21:20:46 10° NNE
Helios 1B rocket 2.9 21:10:52 10° N 21:14:58 63° WNW 21:19:02 10° SSW
Helios 1A 3.9 21:14:06 14° S 21:17:28 47° W 21:21:31 10° NNW
Timation 2 Rocket 4.0 21:11:36 10° NNW 21:17:55 59° ENE 21:19:43 43° ESE
Cosmos 1867 3.6 21:12:59 10° SSW 21:18:15 53° ESE 21:23:34 10° NE
Cosmos 1674 2.6 21:15:01 10° N 21:18:33 73° NE 21:18:33 73° NE
Cosmos 1805 4.1 21:15:28 10° SSW 21:19:15 50° W 21:23:05 10° N
Cosmos-2242 3.1 21:22:00 57° NE 21:22:00 57° NE 21:25:38 10° NNE
Lacrosse 4 Rocket 4.2 21:25:24 10° W 21:28:11 18° NW 21:30:59 10° N
Cosmos 1340 Rocket 3.5 21:24:12 10° N 21:27:12 44° NNE 21:27:12 44° NNE
Cosmos 1743 Rocket 4.3 21:24:27 10° N 21:27:44 40° NE 21:27:44 40° NE
Cosmos 1470 3.9 21:33:41 35° NNE 21:33:41 35° NNE 21:36:06 10° N
Terra 4.2 21:34:10 11° NE 21:34:10 11° NE 21:34:25 10° NNE
Cosmos 372 Rocket 3.8 21:29:50 10° SSW 21:34:55 81° ESE 21:40:06 10° NNE
USA 215 3.2 21:35:34 10° NE 21:42:08 81° NW 21:48:39 10° SW
H-2A R/B 3.4 21:45:55 27° NE 21:45:55 27° NE 21:49:09 10° N
YAOGAN 6 4.0 21:46:14 36° NNW 21:46:14 36° NNW 21:48:33 10° NNW
Cosmos 158 Rocket 4.0 21:43:26 10° NNW 21:48:30 71° WSW 21:49:00 66° SSW
Cosmos 1459 Rocket 4.0 21:45:22 23° S 21:49:32 83° W 21:55:47 10° N
Cosmos 1939 Rocket 4.1 21:49:26 37° WSW 21:50:00 39° W 21:53:55 10° NNW
NOAA 11 4.2 21:51:35 68° NE 21:51:35 68° NE 21:56:45 10° N
Cosmos 2173 Rocket 3.9 21:48:08 28° SSW 21:51:36 82° W 21:57:53 10° N
Cosmos 1833 Rocket 2.7 21:46:23 10° NNW 21:52:00 73° WSW 21:52:40 65° SSW
Cosmos 2278 Rocket 3.8 21:47:11 10° WSW 21:52:19 34° NW 21:57:30 10° N
CZ-3 Stage 3 3.8 21:29:10 10° W 21:52:48 40° SSW 21:54:42 36° S
Cosmos 1953 4.3 21:49:58 10° SW 21:53:30 28° WNW 21:57:03 10° NNW
Envisat 4.3 21:54:30 22° SSW 21:57:05 36° W 22:01:46 10° NNW
Cosmos 2297 4.3 21:58:48 10° SW 22:04:24 56° WNW 22:10:04 10° NNE
MetOp-B 4.2 22:06:50 72° NNW 22:06:50 72° NNW 22:11:38 10° NNW
USA 267 3.1 22:14:41 74° ENE 22:14:55 75° NE 22:21:27 10° NW
Lacrosse 5 rocket 3.6 22:13:43 10° NW 22:15:09 21° NW 22:15:09 21° NW
Cosmos 2082 Rocket 3.2 22:15:55 10° NW 22:21:08 38° WSW 22:21:38 37° WSW
Cosmos 2016 Rocket 4.2 22:22:04 60° WSW 22:22:47 65° W 22:28:56 10° N
ERS-1 Rocket 4.2 22:23:31 36° W 22:23:35 37° W 22:28:14 10° NNW
Cosmos 1725 Rocket 4.3 22:29:56 59° N 22:29:56 59° N 22:34:53 10° N
SPOT 5 4.1 22:37:51 44° NW 22:37:51 44° NW 22:41:51 10° NNW
Lacrosse 5 3.7 22:32:20 10° W 22:36:40 28° NNW 22:37:28 27° N
Tsikada Rocket 4.4 22:32:39 10° NNW 22:37:47 60° NW 22:37:47 60° NW
ARGOS 4.4 22:48:14 38° NW 22:48:14 38° NW 22:51:51 10° NNW
CZ-3B DEB 4.0 22:49:11 10° WNW 22:54:12 22° NNW 22:54:17 22° NNW
Terra 4.4 23:13:03 17° NNW 23:13:03 17° NNW 23:14:10 10° NNW
H-2A R/B 4.2 23:26:33 23° NW 23:26:33 23° NW 23:28:48 10° NNW
